• In Austria
  • List of Countries
  • For 7 days
  • Water Temperature
  • Satellite Maps
  • Weather Map
  • News
  • Weather Widgets
  • user-avatar
    Login

    Hourly Weather Ordino

    Today, 17 February, Saturday

    Time Temperature Precipitation Wind Pressure Humidity
    00:00 +3°C° 0 mm 1 mps 634 mmHg 89%
    01:00 +3°C° 0 mm 1 mps 633 mmHg 89%
    02:00 +3°C° 0 mm 1 mps 633 mmHg 89%
    03:00 +3°C° 0 mm 1 mps 633 mmHg 88%
    04:00 +3°C° 0.3 mm 1 mps 633 mmHg 90%
    05:00 +3°C° 0.3 mm 1 mps 633 mmHg 91%
    06:00 +3°C° 0 mm 1 mps 633 mmHg 90%
    07:00 +3°C° 0.5 mm 1 mps 634 mmHg 91%
    08:00 +3°C° 0.5 mm 2 mps 634 mmHg 91%
    09:00 +3°C° 0.5 mm 2 mps 635 mmHg 91%
    10:00 +3°C° 0.2 mm 2 mps 635 mmHg 89%
    11:00 +2°C° 0.2 mm 3 mps 635 mmHg 88%
    12:00 +2°C° 0 mm 3 mps 635 mmHg 87%
    13:00 +2°C° 0.3 mm 3 mps 635 mmHg 87%
    14:00 +2°C° 0.3 mm 3 mps 635 mmHg 86%
    15:00 +2°C° 0.3 mm 3 mps 634 mmHg 85%
    16:00 +1°C° 0.2 mm 3 mps 634 mmHg 86%
    17:00 0°C° 0.2 mm 3 mps 634 mmHg 87%
    18:00 -1°C° 0.2 mm 3 mps 634 mmHg 88%
    19:00 -2°C° 0 mm 3 mps 634 mmHg 87%
    20:00 -2°C° 0 mm 3 mps 634 mmHg 85%
    21:00 -4°C° 0 mm 3 mps 634 mmHg 84%
    22:00 -5°C° 0 mm 3 mps 634 mmHg 84%
    23:00 -5°C° 0 mm 3 mps 634 mmHg 84%

    Tomorrow, 18 February, Sunday

    Time Temperature Precipitation Wind Pressure Humidity
    00:00 -5°C° 0 mm 3 mps 634 mmHg 84%
    01:00 -6°C° 0 mm 3 mps 634 mmHg 84%
    02:00 -6°C° 0 mm 3 mps 633 mmHg 84%
    03:00 -6°C° 0 mm 3 mps 633 mmHg 84%
    04:00 -6°C° 0 mm 3 mps 633 mmHg 83%
    05:00 -6°C° 0 mm 3 mps 633 mmHg 82%
    06:00 -7°C° 0 mm 3 mps 633 mmHg 82%
    07:00 -5°C° 0 mm 3 mps 633 mmHg 77%
    08:00 -4°C° 0 mm 3 mps 634 mmHg 73%
    09:00 -2°C° 0 mm 2 mps 634 mmHg 69%
    10:00 +1°C° 0 mm 2 mps 635 mmHg 66%
    11:00 +1°C° 0 mm 3 mps 635 mmHg 63%
    12:00 +2°C° 0 mm 3 mps 635 mmHg 60%
    13:00 +2°C° 0 mm 3 mps 635 mmHg 61%
    14:00 +2°C° 0 mm 3 mps 634 mmHg 62%
    15:00 +2°C° 0 mm 3 mps 634 mmHg 62%
    16:00 +1°C° 0 mm 2 mps 633 mmHg 69%
    17:00 -1°C° 0 mm 2 mps 633 mmHg 76%
    18:00 -3°C° 0 mm 2 mps 632 mmHg 83%
    19:00 -3°C° 0 mm 2 mps 632 mmHg 84%
    20:00 -4°C° 0 mm 2 mps 632 mmHg 85%
    21:00 -4°C° 0 mm 2 mps 632 mmHg 86%
    22:00 -4°C° 0 mm 2 mps 631 mmHg 86%
    23:00 -5°C° 0 mm 2 mps 631 mmHg 86%

    Day after tomorrow, 19 February, Monday

    Time Temperature Precipitation Wind Pressure Humidity
    00:00 -5°C° 0 mm 2 mps 631 mmHg 86%
    01:00 -5°C° 0 mm 2 mps 631 mmHg 85%
    02:00 -5°C° 0 mm 2 mps 630 mmHg 85%
    03:00 -5°C° 0 mm 2 mps 630 mmHg 84%
    04:00 -5°C° 0 mm 2 mps 630 mmHg 83%
    05:00 -6°C° 0 mm 2 mps 630 mmHg 81%
    06:00 -6°C° 0 mm 2 mps 630 mmHg 80%
    07:00 -4°C° 0 mm 2 mps 631 mmHg 75%
    08:00 -3°C° 0 mm 2 mps 631 mmHg 69%
    09:00 -1°C° 0 mm 2 mps 632 mmHg 64%
    10:00 +1°C° 0 mm 2 mps 632 mmHg 61%
    11:00 +2°C° 0 mm 2 mps 632 mmHg 58%
    12:00 +3°C° 0 mm 2 mps 633 mmHg 55%
    13:00 +2°C° 0 mm 3 mps 632 mmHg 57%
    14:00 +2°C° 0 mm 3 mps 632 mmHg 58%
    15:00 +2°C° 0 mm 3 mps 631 mmHg 59%
    16:00 0°C° 0 mm 3 mps 631 mmHg 68%
    17:00 -1°C° 0 mm 3 mps 630 mmHg 76%
    18:00 -3°C° 0 mm 2 mps 630 mmHg 84%
    19:00 -3°C° 0 mm 2 mps 630 mmHg 85%
    20:00 -3°C° 0 mm 2 mps 630 mmHg 85%
    21:00 -4°C° 0 mm 3 mps 630 mmHg 86%
    22:00 -5°C° 0 mm 3 mps 630 mmHg 85%
    23:00 -5°C° 0 mm 3 mps 630 mmHg 84%

    20 February, Tuesday

    Time Temperature Precipitation Wind Pressure Humidity
    00:00 -5°C° 0 mm 3 mps 630 mmHg 83%
    01:00 -5°C° 0 mm 3 mps 630 mmHg 82%
    02:00 -5°C° 0 mm 3 mps 630 mmHg 82%
    03:00 -5°C° 0 mm 3 mps 630 mmHg 81%
    04:00 -5°C° 0 mm 3 mps 630 mmHg 81%
    05:00 -4°C° 0 mm 3 mps 630 mmHg 82%
    06:00 -4°C° 0 mm 3 mps 630 mmHg 82%
    07:00 -2°C° 0 mm 3 mps 630 mmHg 79%
    08:00 -1°C° 0 mm 3 mps 630 mmHg 76%
    09:00 0°C° 0 mm 3 mps 631 mmHg 73%
    10:00 +1°C° 0.1 mm 3 mps 631 mmHg 73%
    11:00 +1°C° 0.1 mm 3 mps 631 mmHg 72%
    12:00 +2°C° 0.1 mm 3 mps 631 mmHg 72%
    13:00 +2°C° 0.4 mm 3 mps 630 mmHg 74%
    14:00 +2°C° 0.4 mm 3 mps 630 mmHg 76%
    15:00 +2°C° 0.4 mm 3 mps 629 mmHg 78%
    16:00 +1°C° 0.9 mm 3 mps 629 mmHg 81%
    17:00 0°C° 0.9 mm 3 mps 629 mmHg 83%
    18:00 0°C° 0.9 mm 3 mps 628 mmHg 86%
    19:00 0°C° 0.5 mm 3 mps 628 mmHg 86%
    20:00 -2°C° 0.5 mm 4 mps 628 mmHg 87%
    21:00 -2°C° 0.5 mm 4 mps 628 mmHg 87%
    22:00 -2°C° 0.3 mm 4 mps 628 mmHg 87%
    23:00 -3°C° 0.3 mm 4 mps 628 mmHg 86%

    21 February, Wednesday

    Time Temperature Precipitation Wind Pressure Humidity
    00:00 -3°C° 0.3 mm 4 mps 627 mmHg 86%
    01:00 -3°C° 0.5 mm 4 mps 627 mmHg 86%
    02:00 -3°C° 0.5 mm 4 mps 627 mmHg 86%
    03:00 -3°C° 0.5 mm 4 mps 626 mmHg 86%
    04:00 -4°C° 0.6 mm 4 mps 626 mmHg 86%
    05:00 -4°C° 0.6 mm 4 mps 626 mmHg 86%
    06:00 -4°C° 0.6 mm 4 mps 625 mmHg 86%
    07:00 -4°C° 0.2 mm 4 mps 625 mmHg 83%
    08:00 -4°C° 0.2 mm 4 mps 626 mmHg 80%
    09:00 -4°C° 0.2 mm 4 mps 626 mmHg 77%
    10:00 -4°C° 0.1 mm 4 mps 626 mmHg 74%
    11:00 -3°C° 0.1 mm 4 mps 626 mmHg 70%
    12:00 -3°C° 0.1 mm 4 mps 626 mmHg 67%
    13:00 -3°C° 0.1 mm 4 mps 625 mmHg 67%
    14:00 -3°C° 0.1 mm 4 mps 625 mmHg 67%
    15:00 -3°C° 0.1 mm 4 mps 624 mmHg 67%
    16:00 -5°C° 0.1 mm 4 mps 624 mmHg 70%
    17:00 -7°C° 0.1 mm 4 mps 624 mmHg 74%
    18:00 -7°C° 0.1 mm 3 mps 624 mmHg 77%
    19:00 -7°C° 0.1 mm 3 mps 624 mmHg 78%
    20:00 -7°C° 0.1 mm 3 mps 624 mmHg 79%
    21:00 -8°C° 0.1 mm 3 mps 624 mmHg 79%
    22:00 -8°C° 0.1 mm 3 mps 624 mmHg 79%
    23:00 -8°C° 0.1 mm 3 mps 623 mmHg 80%

    22 February, Thursday

    Time Temperature Precipitation Wind Pressure Humidity
    00:00 -9°C° 0.1 mm 3 mps 623 mmHg 80%
    01:00 -9°C° 0 mm 3 mps 622 mmHg 80%
    02:00 -9°C° 0 mm 3 mps 622 mmHg 80%
    03:00 -10°C° 0 mm 3 mps 622 mmHg 80%
    04:00 -10°C° 0 mm 3 mps 621 mmHg 79%
    05:00 -10°C° 0 mm 3 mps 621 mmHg 79%
    06:00 -12°C° 0 mm 3 mps 621 mmHg 79%
    07:00 -10°C° 0 mm 3 mps 621 mmHg 75%
    08:00 -8°C° 0 mm 3 mps 622 mmHg 72%
    09:00 -7°C° 0 mm 3 mps 622 mmHg 68%
    10:00 -6°C° 0 mm 3 mps 622 mmHg 65%
    11:00 -5°C° 0 mm 3 mps 623 mmHg 63%
    12:00 -3°C° 0 mm 2 mps 623 mmHg 61%
    13:00 -4°C° 0 mm 2 mps 623 mmHg 62%
    14:00 -4°C° 0 mm 2 mps 622 mmHg 63%
    15:00 -4°C° 0 mm 2 mps 622 mmHg 64%
    16:00 -5°C° 0.1 mm 2 mps 622 mmHg 70%
    17:00 -6°C° 0.1 mm 2 mps 622 mmHg 76%
    18:00 -6°C° 0.1 mm 1 mps 622 mmHg 82%
    19:00 -6°C° 0.1 mm 1 mps 622 mmHg 83%
    20:00 -7°C° 0.1 mm 1 mps 622 mmHg 84%
    21:00 -7°C° 0.1 mm 1 mps 622 mmHg 85%
    22:00 -8°C° 0 mm 1 mps 622 mmHg 84%
    23:00 -8°C° 0 mm 1 mps 622 mmHg 83%
    Show more